DateTimeUTC,F1_A11,F1_S11,BsB_S11,BsG_S11,BsR_S11,BbsB_S11,BbsG_S11,BbsR_S11,BaB_A11,BaG_A11,BaR_A11,Tu_S11,T_S11,Uu_S11,U_S11,P_S11,T1_A11
2021-07-27T10:00:00Z,00000200,20000000,,,,,,,-000.37,0000.09,0000.58,18.7,25.1,13.3,09.0,0684.1,31.0
2021-07-27T10:01:00Z,00000200,20000000,,,,,,,0000.28,-000.21,-000.17,18.7,25.1,13.3,09.0,0684.1,31.0
2021-07-27T10:02:00Z,00000200,20000000,,,,,,,-000.01,-000.17,0000.13,18.7,25.1,13.2,08.9,0684.1,31.0
2021-07-27T10:03:00Z,00000200,60000000,,,,,,,0001.97,0002.31,0001.69,18.7,25.2,13.2,08.9,0684.1,31.0
2021-07-27T10:04:00Z,00000200,40000000,0015.12,0013.37,0008.39,0001.62,0001.64,0000.94,0003.40,0002.99,0001.95,18.8,25.0,13.2,09.1,0685.1,31.0
2021-07-27T10:05:00Z,00000200,00000000,0015.56,0013.09,0008.67,0001.70,0001.37,0001.15,0002.82,0002.76,0002.35,18.8,25.0,13.2,09.1,0685.2,31.0
2021-07-27T10:06:00Z,00000200,00000000,0016.93,0013.09,0008.92,0001.83,0001.71,0000.83,0003.02,0002.84,0002.06,18.8,25.0,13.2,09.1,0685.2,31.0
2021-07-27T10:07:00Z,00000200,00000000,0016.76,0013.34,0009.02,0001.72,0001.49,0000.73,0003.35,0003.25,0002.45,18.8,25.0,13.3,09.2,0685.2,31.0
2021-07-27T10:08:00Z,00000200,00000000,0016.36,0013.78,0009.03,0001.72,0001.67,0000.88,0003.09,0002.60,0002.51,18.8,25.0,13.4,09.2,0685.2,31.0
2021-07-27T10:09:00Z,00000200,00000000,0016.09,0013.56,0009.17,0001.59,0001.62,0001.06,0003.41,0003.03,0002.45,18.8,25.0,13.4,09.2,0685.2,31.0
2021-07-27T10:10:00Z,00000200,00000000,0015.99,0013.84,0009.13,0001.94,0001.68,0001.07,0003.31,0003.19,0002.24,18.9,25.0,13.4,09.2,0685.2,31.0
2021-07-27T10:11:00Z,00000200,00000000,0015.98,0013.11,0008.89,0001.45,0001.48,0000.99,0003.04,0002.98,0002.52,18.9,25.0,13.3,09.2,0685.2,31.0
2021-07-27T10:12:00Z,00000200,00000000,0016.31,0013.52,0009.34,0001.88,0001.34,0001.31,0003.10,0002.59,0002.20,18.9,24.9,13.3,09.2,0685.2,31.0
2021-07-27T10:13:00Z,00000200,00000000,0017.26,0013.52,0008.68,0001.86,0001.90,0001.18,0003.18,0002.92,0002.41,18.9,25.0,13.2,09.1,0685.2,31.0
2021-07-27T10:14:00Z,00000200,00000000,0017.11,0014.05,0009.47,0001.74,0001.89,0001.06,0003.43,0003.04,0002.17,18.9,25.0,13.3,09.1,0685.2,31.0
2021-07-27T10:15:00Z,00000200,00000000,0017.42,0014.49,0009.79,0001.83,0001.50,0001.00,0002.81,0003.26,0002.84,18.9,25.0,13.3,09.1,0685.2,31.0
2021-07-27T10:16:00Z,00000200,00000000,0017.79,0014.88,0009.89,0001.82,0001.54,0001.10,0003.74,0003.18,0002.26,18.9,25.0,13.3,09.2,0685.2,31.0
2021-07-27T10:17:00Z,00000200,00000000,0018.76,0015.64,0010.74,0002.22,0001.82,0001.38,0003.21,0003.10,0002.65,18.9,25.0,13.2,09.1,0685.2,31.0
2021-07-27T10:18:00Z,00000200,00000000,0019.21,0016.53,0010.95,0002.52,0001.97,0001.01,0003.96,0003.18,0002.57,18.9,25.0,13.1,09.1,0685.2,31.0
2021-07-27T10:19:00Z,00000200,00000000,0021.31,0016.97,0011.81,0002.86,0002.02,0001.23,0003.48,0003.55,0002.84,18.9,25.0,13.1,09.1,0685.2,31.0
2021-07-27T10:20:00Z,00000200,00000000,0021.20,0017.29,0012.24,0002.49,0002.01,0001.37,0004.10,0003.94,0002.93,18.9,25.0,13.1,09.0,0685.2,31.0
2021-07-27T10:21:00Z,00000200,00000000,0022.21,0018.28,0012.27,0002.77,0002.28,0001.62,0004.03,0003.58,0003.19,18.9,25.0,13.1,09.0,0685.2,31.0
2021-07-27T10:22:00Z,00000200,00000000,0021.63,0018.19,0012.58,0002.54,0002.11,0001.47,0004.10,0003.63,0003.05,18.9,25.0,12.9,08.9,0685.2,31.0
2021-07-27T10:23:00Z,00000200,00000000,0022.60,0018.16,0012.38,0002.69,0001.86,0001.49,0003.79,0003.73,0003.07,18.9,25.0,13.0,09.0,0685.2,31.0
2021-07-27T10:24:00Z,00000200,00000000,0022.01,0018.69,0013.14,0002.48,0001.99,0001.35,0004.22,0003.83,0003.22,18.9,25.0,13.1,09.0,0685.3,31.0
2021-07-27T10:25:00Z,00000200,00000000,0022.67,0018.34,0013.42,0002.10,0002.09,0001.27,0004.27,0004.12,0002.89,18.9,25.0,13.0,09.0,0685.3,31.0
2021-07-27T10:26:00Z,00000200,00000000,0022.81,0018.78,0013.92,0002.04,0002.01,0001.78,0004.45,0003.87,0003.16,18.9,25.0,12.9,08.9,0685.3,31.0
2021-07-27T10:27:00Z,00000200,00000000,0023.38,0018.71,0013.09,0001.94,0001.96,0001.56,0003.79,0003.79,0003.34,18.9,25.0,13.0,09.0,0685.3,31.0
2021-07-27T10:28:00Z,00000200,00000000,0024.38,0019.35,0014.14,0002.50,0002.33,0001.60,0004.51,0004.16,0003.27,18.9,25.0,13.0,09.0,0685.3,31.0
2021-07-27T10:29:00Z,00000200,00000000,0021.36,0017.65,0012.02,0002.17,0002.12,0001.08,0003.68,0003.30,0002.59,18.9,25.0,12.9,09.0,0685.3,31.1
2021-07-27T10:30:00Z,00000200,00000000,0018.44,0014.92,0009.73,0002.37,0001.89,0001.09,0003.55,0003.04,0002.64,18.9,25.0,12.9,09.0,0685.3,31.1
2021-07-27T10:31:00Z,00000200,00000000,0018.03,0014.39,0009.03,0001.73,0001.77,0001.15,0003.37,0003.27,0002.72,18.9,25.0,13.0,09.0,0685.3,31.0
2021-07-27T10:32:00Z,00000200,00000000,0017.61,0013.77,0008.91,0002.21,0001.89,0001.35,0003.47,0003.16,0002.12,18.9,25.0,13.1,09.0,0685.3,31.1
2021-07-27T10:33:00Z,00000200,00000000,0019.92,0016.01,0010.63,0001.96,0001.74,0001.25,0003.70,0003.23,0002.92,19.0,25.0,13.0,09.0,0685.3,31.0
2021-07-27T10:34:00Z,00000200,00000000,0020.15,0016.71,0011.26,0002.32,0001.77,0001.10,0003.93,0003.78,0002.81,19.0,25.0,13.1,09.1,0685.3,31.0
2021-07-27T10:35:00Z,00000200,00000000,0021.12,0016.62,0011.41,0002.31,0001.90,0001.45,0003.67,0003.37,0003.00,19.0,25.0,13.1,09.1,0685.3,31.0
2021-07-27T10:36:00Z,00000200,00000000,0022.95,0018.15,0012.10,0002.09,0001.98,0001.78,0004.00,0003.71,0002.79,19.0,25.0,13.1,09.1,0685.3,31.0
2021-07-27T10:37:00Z,00000200,00000000,0022.71,0018.33,0013.29,0002.66,0001.95,0001.44,0003.98,0003.94,0002.93,19.0,25.0,13.1,09.1,0685.3,31.0
2021-07-27T10:38:00Z,00000200,00000000,0021.44,0017.43,0012.46,0002.76,0002.05,0001.41,0004.41,0003.65,0002.97,19.0,25.0,13.2,09.1,0685.3,31.1
2021-07-27T10:39:00Z,00000200,00000000,0021.41,0017.62,0011.84,0001.81,0002.00,0001.43,0003.43,0003.47,0003.08,19.0,25.0,13.3,09.2,0685.3,31.0
2021-07-27T10:40:00Z,00000200,00000000,0020.66,0017.76,0012.66,0002.29,0002.00,0001.46,0004.35,0003.93,0002.98,19.0,25.0,13.2,09.1,0685.4,31.0
2021-07-27T10:41:00Z,00000200,00000000,0021.31,0018.27,0012.13,0002.60,0002.03,0001.38,0004.38,0003.95,0003.04,19.0,25.0,13.2,09.1,0685.3,31.0
2021-07-27T10:42:00Z,00000200,00000000,0022.73,0018.24,0012.75,0002.64,0002.10,0001.61,0003.90,0003.81,0003.30,19.0,25.0,13.2,09.1,0685.3,31.0
2021-07-27T10:43:00Z,00000200,00000000,0021.92,0018.28,0012.59,0002.73,0001.86,0001.55,0004.03,0003.74,0003.06,19.0,25.0,13.2,09.2,0685.3,31.0
2021-07-27T10:44:00Z,00000200,00000000,0022.15,0017.85,0012.32,0002.24,0002.35,0001.30,0004.03,0003.68,0002.76,19.0,25.0,13.2,09.1,0685.3,31.1
2021-07-27T10:45:00Z,00000200,00000000,0023.27,0018.93,0013.18,0003.02,0002.38,0001.60,0003.98,0003.60,0003.27,19.0,25.0,13.2,09.1,0685.3,31.0
2021-07-27T10:46:00Z,00000200,00000000,0021.84,0018.75,0012.68,0002.33,0002.55,0001.36,0004.34,0004.10,0002.95,19.0,25.0,13.1,09.1,0685.3,31.0
2021-07-27T10:47:00Z,00000200,00000000,0022.16,0018.49,0013.03,0003.10,0002.31,0001.42,0003.98,0003.98,0003.29,19.0,25.1,13.2,09.1,0685.3,31.0
2021-07-27T10:48:00Z,00000200,00000000,0022.32,0018.43,0012.66,0002.71,0002.70,0001.62,0004.12,0003.95,0003.03,19.0,25.1,13.2,09.1,0685.3,31.1
2021-07-27T10:49:00Z,00000200,00000000,0021.35,0018.78,0012.89,0002.54,0002.16,0001.61,0004.27,0003.97,0003.08,19.0,25.1,13.1,09.1,0685.4,31.1
2021-07-27T10:50:00Z,00000200,00000000,0021.35,0019.05,0013.51,0002.37,0002.53,0001.33,0003.86,0003.54,0002.92,19.0,25.1,13.1,09.1,0685.4,31.0
2021-07-27T10:51:00Z,00000200,00000000,0023.13,0018.74,0013.75,0002.85,0001.99,0001.51,0004.47,0003.83,0003.49,19.1,25.1,13.2,09.1,0685.4,31.1
2021-07-27T10:52:00Z,00000200,00000000,0023.28,0019.39,0013.03,0002.53,0002.12,0001.34,0004.16,0003.93,0003.06,19.1,25.1,13.2,09.1,0685.4,31.0
2021-07-27T10:53:00Z,00000200,00000000,0022.58,0018.91,0012.99,0002.60,0002.08,0001.45,0004.45,0003.93,0003.17,19.1,25.1,13.2,09.2,0685.4,31.0
2021-07-27T10:54:00Z,00000200,00000000,0022.26,0017.18,0012.39,0002.75,0002.21,0001.43,0004.00,0003.67,0003.13,19.1,25.1,13.2,09.1,0685.4,31.0
2021-07-27T10:55:00Z,00000200,00000000,0022.38,0017.97,0012.64,0002.50,0002.10,0001.21,0004.09,0004.03,0002.92,19.1,25.1,13.1,09.1,0685.4,31.0
2021-07-27T10:56:00Z,00000200,00000000,0020.93,0018.21,0012.47,0002.33,0001.87,0001.51,0003.85,0003.74,0003.10,19.1,25.1,13.2,09.1,0685.4,31.0
2021-07-27T10:57:00Z,00000200,40000000,,,,,,,0001.40,0001.24,0001.12,19.1,25.1,13.0,09.0,0685.5,31.1
2021-07-27T10:58:00Z,00000200,60000000,,,,,,,-000.14,-000.40,-000.17,18.9,25.2,13.3,09.0,0684.5,31.1
2021-07-27T10:59:00Z,00000200,20000000,,,,,,,-000.34,-000.04,-000.20,18.9,25.3,13.1,08.9,0684.4,31.1
